This demonstration page uses our WeatherBlox Daily Observations layout. Learn more.

39.92423, -83.80882

Hourly Observations for May 23, 2015

Temp ( °F °C ) Dew Point ( °F °C ) Humidity (%) Winds ( mph kmh ) Pressure ( in mb ) Visibility ( mi km ) Precip ( " mm )
12:56 am 00:56 Clear 51 10.5 44 6.6 77 77 ENE 3 6 30.32 1027 7 11.26538 0 0
1:56 am 01:56 Clear 49 9.4 42 5.5 77 77 E 3 6 30.31 1027 7 11.26538 0 0
2:56 am 02:56 Clear 48 8.8 39 3.8 71 71 E 6 9 30.32 1027 7 11.26538 0 0
3:56 am 03:56 Clear 46 7.7 38 3.3 74 74 E 5 7 30.33 1027 7 11.26538 0 0
4:56 am 04:56 Clear 47 8.3 39 3.8 74 74 E 6 9 30.34 1027 7 11.26538 0 0
5:56 am 05:56 Clear 48 8.8 40 4.4 74 74 E 6 9 30.36 1028 7 11.26538 0 0
6:56 am 06:56 Hazy 51 10.5 42 5.5 71 71 ESE 6 9 30.38 1029 5 8.0467 0 0
7:56 am 07:56 Hazy 57 13.8 40 4.4 53 53 SE 13 20 30.39 1029 5 8.0467 0 0
8:56 am 08:56 Hazy 61 16.1 41 5 48 48 SE 9 15 30.41 1030 5 8.0467 0 0
9:56 am 09:56 Hazy 66 18.8 44 6.6 45 45 SSE 8 13 30.41 1030 5 8.0467 0 0
10:56 am 10:56 Hazy 67 19.4 45 7.2 45 45 SSE 7 11 30.41 1030 6 9.65604 0 0
11:56 am 11:56 Hazy 71 21.6 47 8.3 43 43 SW 7 11 30.41 1030 5 8.0467 0 0
12:56 pm 12:56 Hazy 74 23.3 42 5.5 32 32 VRB 6 9 30.4 1030 6 9.65604 0 0
1:56 pm 13:56 Hazy 76 24.4 43 6.1 31 31 VRB 7 11 30.38 1029 5 8.0467 0 0
2:56 pm 14:56 Hazy 77 25 45 7.2 32 32 VRB 7 11 30.37 1028 5 8.0467 0 0
3:56 pm 15:56 Hazy 78 25.5 46 7.7 32 32 VRB 6 9 30.36 1028 5 8.0467 0 0
4:56 pm 16:56 Hazy 78 25.5 44 6.6 30 30 Calm 30.33 1027 6 9.65604 0 0
5:56 pm 17:56 Hazy 78 25.5 43 6.1 29 29 WNW 6 9 30.32 1027 6 9.65604 0 0
6:56 pm 18:56 Hazy 78 25.5 43 6.1 29 29 SW 6 9 30.3 1026 5 8.0467 0 0
7:56 pm 19:56 Hazy 76 24.4 46 7.7 34 34 SSW 3 6 30.28 1025 5 8.0467 0 0
8:56 pm 20:56 Hazy 70 21.1 45 7.2 41 41 Calm 30.28 1026 5 8.0467 0 0
9:56 pm 21:56 Clear 62 16.6 48 8.8 60 60 E 3 6 30.3 1026 7 11.26538 0 0
10:56 pm 22:56 Clear 63 17.2 47 8.3 56 56 SE 6 9 30.31 1026 7 11.26538 0 0
11:56 pm 23:56 Clear 56 13.3 49 9.4 77 77 ESE 3 6 30.3 1026 7 11.26538 0 0

Powered by AerisWeather